[[{"header":{"parameterUnit":"m.s-1","parameterCategory":2,"la1":30.2992,"la2":30.254,"lo1":-89.0895,"lo2":-89.0443,"dy":0.0025,"dx":0.0025,"nx":19,"ny":19,"refTime":"2026-03-20T09:00:00:Z","depth":"0","parameterNumber":2,"parameterNumberName":"U-component_of_CURRENTS"},"data":[0,0,0,0.1314,0.1313,0.1129,0.1128,0.1114,0.1116,0,0,0,0,0,0,0,0,0,0,0,0.1372,0.1372,0.1315,0.1312,0.1129,0.1127,0.1114,0.1116,0,0,0,0,0,0,0,0,0,0,0,0.1372,0.1372,0.1372,0.1312,0.113,0.1127,0.1114,0.1182,0,0,0,0,0,0,0,0,0,0,0.1326,0.1304,0.1372,0.1372,0.1312,0.113,0.1127,0.1182,0.1178,0.1281,0,0.1285,0,0.124,0.1126,0.1126,0,0,0,0.1249,0.1307,0.134,0.1372,0.1311,0.113,0.1194,0.1178,0.1173,0.1277,0.1284,0.1282,0.1239,0.1127,0.1127,0.1281,0.1282,0,0,0.1259,0.1254,0.1343,0.1339,0.1314,0.12,0.1189,0.1172,0.1147,0.1284,0.1281,0.1239,0.1128,0.1129,0.1281,0.1281,0,0,0,0.1331,0.1261,0.1285,0.1341,0.1312,0.1197,0.1183,0.1144,0.1178,0.128,0.1239,0.1129,0.113,0.128,0.1281,0.1193,0,0,0,0.1334,0.1309,0.1292,0.1274,0.1312,0.1181,0.1157,0.1177,0.1173,0.1239,0.1129,0.1132,0.1279,0.128,0.1194,0.1252,0,0,0,0.1371,0.1309,0.1322,0.1277,0.1235,0.118,0.1201,0.1172,0.1154,0.1126,0.1132,0.1279,0.128,0.1195,0.1252,0.1245,0,0,0,0.1325,0.1267,0.1321,0.1241,0.1238,0.1169,0.1199,0.1118,0.1086,0.1129,0.1279,0.1281,0.1195,0.1251,0.1244,0.1195,0.1192,0,0,0.1218,0.1253,0.1209,0.1255,0.1247,0.1187,0.1122,0.1103,0.1156,0.1289,0.129,0.1194,0.1252,0.1245,0.1273,0.1267,0,0,0,0.1152,0.1183,0.1169,0.1186,0.1153,0.1153,0.1109,0.1111,0.1155,0.1159,0.1246,0.129,0.1285,0.1256,0.1253,0.1278,0.1287,0.1287,0.1287,0.1065,0.1109,0.1092,0.1173,0.1136,0.1129,0.1115,0.1151,0.1154,0.1177,0.125,0.125,0.1217,0.1215,0.1241,0.1241,0.124,0.124,0.124,0.1038,0.1037,0.1118,0.1128,0.1175,0.1144,0.1172,0.1174,0.1239,0.1237,0.1232,0.1211,0.1205,0.1235,0.1235,0.1236,0.1237,0.1237,0.1237,0.1051,0.1035,0.1085,0.1095,0.1124,0.1133,0.1138,0.1191,0.1239,0.1254,0.1214,0.1214,0.1215,0.1203,0.1204,0.1204,0.1204,0.1204,0.1204,0.0974,0.102,0.1013,0.1038,0.1031,0.104,0.1111,0.1154,0.1196,0.1212,0.121,0.1241,0.1242,0.1213,0.1207,0.1207,0.1206,0.1206,0.1206,0.0896,0.0893,0.0884,0.0886,0.0893,0.0867,0.0965,0.1032,0.1098,0.1115,0.1194,0.1179,0.1225,0.1228,0.1203,0.1196,0.1196,0.1196,0.1196,0.0787,0.0802,0.0764,0.0755,0.0752,0.0791,0.0766,0.0849,0.1031,0.1121,0.1205,0.1167,0.1166,0.1209,0.1212,0.1187,0.1177,0.1177,0.1177,0.0677,0.0702,0.0655,0.069,0.0704,0.0703,0.0641,0.0692,0.0992,0.1182,0.1254,0.1254,0.1205,0.1202,0.1273,0.1275,0.1237,0,0]},{"header":{"parameterUnit":"m.s-1","parameterCategory":2,"la1":30.2992,"la2":30.254,"lo1":-89.0895,"lo2":-89.0443,"dy":0.0025,"dx":0.0025,"nx":19,"ny":19,"refTime":"2026-03-20T09:00:00:Z","depth":"0","parameterNumber":3,"parameterNumberName":"V-component_of_CURRENTS"},"data":[0,0,0,0.0078,0.0081,0.0176,0.0176,0.0187,0.0187,0,0,0,0,0,0,0,0,0,0,0,0.0014,0.0014,0.0078,0.0082,0.0176,0.0176,0.0187,0.0187,0,0,0,0,0,0,0,0,0,0,0,0.0013,0.0014,0.0015,0.0082,0.0176,0.0176,0.0187,0.0133,0,0,0,0,0,0,0,0,0,0,0.005,0.0026,0.0014,0.0015,0.0083,0.0176,0.0176,0.0131,0.0136,0.0126,0,0.0152,0,0.0202,0.0189,0.0189,0,0,0,0.004,0.0022,0.0058,0.0016,0.0085,0.0176,0.0122,0.0134,0.014,0.0133,0.0153,0.0155,0.0202,0.019,0.019,0.0225,0.0226,0,0,0.0035,0.0017,0.0054,0.0062,0.0123,0.0119,0.0125,0.0139,0.0142,0.0153,0.0157,0.0202,0.019,0.019,0.0225,0.0225,0,0,0,0.0048,0.0013,0.0049,0.0059,0.0103,0.0123,0.013,0.0141,0.0156,0.0157,0.0202,0.019,0.019,0.0225,0.0225,0.022,0,0,0,0.0043,0.0025,0.0047,0.0035,0.0104,0.0143,0.0131,0.0154,0.0159,0.0202,0.019,0.0191,0.0225,0.0225,0.022,0.0231,0,0,0,0.0007,0.0022,0.0038,0.0034,0.01,0.0144,0.0159,0.0155,0.0188,0.019,0.0191,0.0225,0.0225,0.0219,0.023,0.0255,0,0,0,-0.0025,0.0012,0.0038,0.0084,0.0099,0.0158,0.0159,0.0188,0.019,0.019,0.0225,0.0225,0.0219,0.023,0.0254,0.0294,0.03,0,0,0.0004,0.0015,0.004,0.0067,0.0128,0.0141,0.0182,0.0184,0.019,0.0205,0.0207,0.022,0.023,0.0255,0.0315,0.0321,0,0,0,0.0038,0.0068,0.0084,0.0132,0.0164,0.018,0.0203,0.0217,0.0224,0.0206,0.0229,0.0236,0.0252,0.0274,0.0279,0.0347,0.0227,0.0227,0.0227,0.0103,0.0109,0.0143,0.0158,0.0182,0.0213,0.0216,0.0238,0.0237,0.0244,0.0238,0.0263,0.0286,0.029,0.036,0.0238,0.0238,0.0238,0.0238,0.0172,0.0174,0.0182,0.0215,0.0211,0.0234,0.0252,0.025,0.0267,0.026,0.0275,0.0275,0.0295,0.0368,0.0238,0.0238,0.0238,0.0238,0.0238,0.0189,0.0177,0.0205,0.0223,0.0241,0.0249,0.0267,0.0277,0.028,0.0275,0.0316,0.0317,0.0377,0.0285,0.0285,0.0286,0.0286,0.0286,0.0286,0.0174,0.0191,0.0203,0.0227,0.0237,0.0263,0.029,0.0307,0.0341,0.033,0.0331,0.0403,0.0278,0.0272,0.0288,0.0288,0.0288,0.0287,0.0287,0.0167,0.0157,0.0193,0.021,0.0258,0.0292,0.0323,0.0376,0.0397,0.0413,0.0483,0.0364,0.0376,0.0373,0.037,0.0411,0.0411,0.0411,0.0411,0.0143,0.0143,0.0197,0.0235,0.0279,0.032,0.0388,0.0446,0.0521,0.0578,0.0572,0.057,0.0562,0.0586,0.0577,0.0578,0.0671,0.0672,0.0672,0.0142,0.0168,0.02,0.0239,0.03,0.0354,0.0428,0.0558,0.0689,0.0688,0.0661,0.065,0.0651,0.0633,0.0668,0.0651,0.0652,0,0]}],[{"header":{"parameterUnit":"m.s-1","parameterCategory":2,"la1":30.2992,"la2":30.254,"lo1":-89.0895,"lo2":-89.0443,"dy":0.0025,"dx":0.0025,"nx":19,"ny":19,"refTime":"2026-03-20T09:00:00:Z","depth":"2","parameterNumber":2,"parameterNumberName":"U-component_of_CURRENTS"},"data":[0,0,0,0.0573,0.0584,0.0687,0.0684,0.0488,0.0488,0,0,0,0,0,0,0,0,0,0,0,0.0462,0.0467,0.0572,0.0585,0.0687,0.0684,0.0488,0.0488,0,0,0,0,0,0,0,0,0,0,0,0.046,0.0466,0.0473,0.0586,0.0687,0.0683,0.0488,0.043,0,0,0,0,0,0,0,0,0,0,0.0344,0.0465,0.0464,0.0473,0.0589,0.0688,0.0683,0.0427,0.0433,0.0429,0,0.0595,0,0.0688,0.0492,0.0492,0,0,0,0.0326,0.0462,0.0477,0.0474,0.0594,0.0689,0.0567,0.0431,0.0438,0.0437,0.0594,0.0591,0.0685,0.0492,0.0492,0.0608,0.0609,0,0,0.032,0.0446,0.0475,0.0487,0.0815,0.0566,0.0575,0.0436,0.053,0.0593,0.0589,0.0682,0.0492,0.0493,0.0607,0.0608,0,0,0,0.0479,0.0444,0.046,0.049,0.0622,0.0576,0.0584,0.0529,0.054,0.0588,0.0679,0.0492,0.0493,0.0606,0.0607,0.0632,0,0,0,0.0462,0.0555,0.0462,0.0529,0.0632,0.0658,0.0683,0.0542,0.0536,0.068,0.0493,0.0494,0.0605,0.0607,0.0629,0.0734,0,0,0,0.0423,0.0552,0.0616,0.0538,0.0707,0.0662,0.0652,0.0538,0.0604,0.0492,0.0494,0.0604,0.0606,0.0626,0.0727,0.0717,0,0,0,0.045,0.05,0.0623,0.0687,0.071,0.0671,0.0652,0.0614,0.0523,0.0493,0.0605,0.0607,0.0625,0.0723,0.0714,0.0571,0.0574,0,0,0.0439,0.0507,0.0498,0.061,0.0644,0.0626,0.0592,0.0512,0.0552,0.058,0.0584,0.063,0.0727,0.0716,0.0695,0.0694,0,0,0,0.0432,0.0543,0.054,0.0663,0.0619,0.0662,0.0607,0.0604,0.0621,0.0581,0.0667,0.0731,0.072,0.0628,0.0629,0.0617,0.0617,0.0617,0.0617,0.0581,0.0541,0.0575,0.06,0.0604,0.067,0.066,0.0694,0.0635,0.0697,0.0772,0.0832,0.0734,0.0733,0.075,0.075,0.075,0.075,0.075,0.0584,0.0576,0.0631,0.0664,0.0706,0.0715,0.0753,0.079,0.0855,0.0824,0.0807,0.0691,0.0735,0.0753,0.0752,0.0752,0.0752,0.0751,0.0751,0.0691,0.0641,0.0713,0.0688,0.077,0.078,0.0819,0.0908,0.096,0.1014,0.0837,0.0834,0.0844,0.094,0.094,0.0941,0.0941,0.0941,0.0942,0.064,0.0669,0.0711,0.0726,0.0725,0.0787,0.0881,0.0918,0.0936,0.0939,0.0934,0.0897,0.0891,0.0858,0.0948,0.0947,0.0946,0.0945,0.0945,0.0621,0.0651,0.0663,0.0697,0.0701,0.066,0.0759,0.0781,0.0844,0.085,0.086,0.086,0.0847,0.0843,0.0811,0.0884,0.0884,0.0884,0.0884,0.0569,0.0593,0.0589,0.0589,0.059,0.0614,0.0551,0.0552,0.0637,0.0629,0.064,0.0532,0.0539,0.0504,0.0508,0.0467,0.0451,0.0451,0.045,0.0453,0.0504,0.0487,0.0552,0.0539,0.0536,0.0394,0.0326,0.0364,0.0434,0.0573,0.0853,0.0718,0.0721,0.0684,0.0685,0.0625,0,0]},{"header":{"parameterUnit":"m.s-1","parameterCategory":2,"la1":30.2992,"la2":30.254,"lo1":-89.0895,"lo2":-89.0443,"dy":0.0025,"dx":0.0025,"nx":19,"ny":19,"refTime":"2026-03-20T09:00:00:Z","depth":"2","parameterNumber":3,"parameterNumberName":"V-component_of_CURRENTS"},"data":[0,0,0,-0.0006,-0.0002,0.009,0.0089,0.0084,0.0084,0,0,0,0,0,0,0,0,0,0,0,-0.0119,-0.0119,-0.0006,-0.0001,0.009,0.0089,0.0084,0.0084,0,0,0,0,0,0,0,0,0,0,0,-0.0119,-0.0119,-0.0119,-0.0001,0.009,0.0089,0.0084,0.0029,0,0,0,0,0,0,0,0,0,0,-0.0051,-0.01,-0.0119,-0.0119,0.0,0.009,0.0089,0.0027,0.0032,0.0029,0,0.0032,0,0.0123,0.0087,0.0088,0,0,0,-0.0069,-0.0105,-0.0066,-0.0119,0.0002,0.009,0.003,0.0031,0.0037,0.0036,0.0033,0.0037,0.0123,0.0088,0.0088,0.0092,0.0092,0,0,-0.0074,-0.0113,-0.007,-0.0063,0.0012,0.0027,0.0033,0.0035,0.0025,0.0034,0.0039,0.0123,0.0088,0.0088,0.0092,0.0092,0,0,0,-0.0043,-0.0117,-0.0079,-0.0067,-0.0003,0.0032,0.0038,0.0022,0.0039,0.004,0.0123,0.0088,0.0089,0.0093,0.0092,0.0123,0,0,0,-0.0049,-0.0092,-0.0082,-0.0106,-0.0002,0.0039,0.0025,0.0035,0.0043,0.0123,0.0088,0.0089,0.0093,0.0093,0.0123,0.0146,0,0,0,-0.0121,-0.0098,-0.0091,-0.0108,-0.0026,0.0041,0.0054,0.0037,0.0097,0.0088,0.0089,0.0093,0.0093,0.0123,0.0145,0.0168,0,0,0,-0.0161,-0.0126,-0.0094,-0.0053,-0.0026,0.0046,0.0055,0.0095,0.0087,0.0089,0.0093,0.0092,0.0123,0.0144,0.0167,0.0195,0.0201,0,0,-0.0125,-0.0124,-0.0101,-0.0065,0.0014,0.0029,0.0073,0.0071,0.007,0.0073,0.0074,0.0123,0.0145,0.0168,0.0154,0.0162,0,0,0,-0.0094,-0.0065,-0.0051,0.0004,0.0042,0.0067,0.0093,0.0106,0.0103,0.0082,0.01,0.0112,0.0127,0.014,0.0146,0.0089,0.0089,0.0089,0.0089,-0.001,-0.0006,0.0024,0.0036,0.0054,0.0102,0.0099,0.0114,0.011,0.0115,0.012,0.0135,0.0148,0.0153,0.0094,0.0094,0.0094,0.0094,0.0095,0.0071,0.0067,0.0062,0.01,0.0097,0.0122,0.0135,0.014,0.0151,0.0142,0.0154,0.015,0.0161,0.0097,0.0096,0.0096,0.0096,0.0096,0.0095,0.0093,0.0078,0.0105,0.0115,0.0143,0.0146,0.0162,0.0176,0.0186,0.0185,0.0202,0.0202,0.0177,0.0194,0.0195,0.0195,0.0195,0.0195,0.0195,0.0083,0.0095,0.0117,0.0133,0.0141,0.0174,0.0202,0.0215,0.0248,0.024,0.024,0.0169,0.0166,0.0182,0.0198,0.0198,0.0197,0.0197,0.0197,0.0077,0.0078,0.0113,0.0134,0.018,0.0208,0.0238,0.0285,0.0304,0.0324,0.0269,0.0266,0.0264,0.0259,0.0276,0.0316,0.0316,0.0316,0.0316,0.0063,0.0066,0.013,0.0166,0.0206,0.0241,0.0292,0.0302,0.0306,0.0288,0.0288,0.0261,0.0257,0.0252,0.0247,0.0262,0.0299,0.0299,0.0299,0.0063,0.0095,0.0136,0.0181,0.0227,0.0278,0.0315,0.0324,0.0307,0.0294,0.024,0.0324,0.0284,0.0278,0.027,0.0262,0.0287,0,0]}],[{"header":{"parameterUnit":"m.s-1","parameterCategory":2,"la1":30.2992,"la2":30.254,"lo1":-89.0895,"lo2":-89.0443,"dy":0.0025,"dx":0.0025,"nx":19,"ny":19,"refTime":"2026-03-20T09:00:00:Z","depth":"4","parameterNumber":2,"parameterNumberName":"U-component_of_CURRENTS"},"data":[0,0,0,-0.0859,-0.086,-0.1011,-0.1012,-0.1277,-0.1279,0,0,0,0,0,0,0,0,0,0,0,-0.0838,-0.0838,-0.0859,-0.086,-0.1011,-0.1012,-0.1277,-0.1279,0,0,0,0,0,0,0,0,0,0,0,-0.0838,-0.0838,-0.0838,-0.086,-0.101,-0.1012,-0.1276,-0.1161,0,0,0,0,0,0,0,0,0,0,-0.1013,-0.0966,-0.0838,-0.0838,-0.086,-0.101,-0.1013,-0.1156,-0.1169,-0.1207,0,-0.1205,0,-0.1204,-0.1292,-0.1292,0,0,0,-0.093,-0.0956,-0.0968,-0.0838,-0.0861,-0.1009,-0.0963,-0.1163,-0.1177,-0.1224,-0.1209,-0.1217,-0.1209,-0.1293,-0.1294,-0.1686,-0.1688,0,0,-0.0922,-0.0904,-0.0958,-0.0976,-0.0868,-0.0957,-0.0966,-0.1172,-0.119,-0.121,-0.1223,-0.1213,-0.1294,-0.1296,-0.1683,-0.1686,0,0,0,-0.0851,-0.0898,-0.0907,-0.0967,-0.0964,-0.096,-0.097,-0.1184,-0.1177,-0.1225,-0.1216,-0.1295,-0.1298,-0.168,-0.1684,-0.1593,0,0,0,-0.0849,-0.085,-0.0902,-0.0899,-0.0958,-0.1064,-0.0978,-0.1165,-0.1186,-0.1215,-0.1295,-0.1299,-0.1677,-0.1682,-0.1588,-0.1632,0,0,0,-0.0836,-0.0849,-0.0851,-0.0896,-0.0923,-0.106,-0.1071,-0.1171,-0.1177,-0.1292,-0.13,-0.1674,-0.1681,-0.1584,-0.1625,-0.149,0,0,0,-0.0838,-0.0822,-0.0851,-0.0859,-0.092,-0.0997,-0.107,-0.1204,-0.1309,-0.1296,-0.1677,-0.1684,-0.1583,-0.1621,-0.1489,-0.1132,0,0,0,-0.0811,-0.0819,-0.0828,-0.0854,-0.0886,-0.0984,-0.1104,-0.1292,-0.1437,-0.1618,-0.1627,-0.159,-0.1624,-0.1489,-0.1541,0,0,0,0,-0.0817,-0.0806,-0.0825,-0.086,-0.0932,-0.1068,-0.1211,-0.1327,-0.1601,-0.1513,-0.1755,-0.1786,-0.1696,-0.1498,-0.1717,-0.1716,-0.1715,-0.1714,-0.1714,-0.0758,-0.0801,-0.0833,-0.0896,-0.0977,-0.1163,-0.1324,-0.1551,-0.1605,-0.1785,-0.1827,-0.1848,-0.1654,-0.1923,-0.1922,-0.1922,-0.1922,-0.1922,-0.1922,-0.0714,-0.0751,-0.0853,-0.0913,-0.1079,-0.1245,-0.1518,-0.1637,-0.1824,-0.1929,-0.1838,-0.1573,-0.1917,-0.1918,-0.1919,-0.1919,-0.1919,-0.192,-0.192,-0.0703,-0.0727,-0.0799,-0.0948,-0.1179,-0.141,-0.1527,-0.1762,-0.1871,-0.1857,-0.1548,-0.1805,-0.1666,-0.1737,-0.1737,-0.1736,-0.1736,-0.1736,-0.1736,-0.0673,-0.0727,-0.083,-0.1008,-0.1156,-0.1356,-0.1579,-0.1526,-0.161,-0.1518,-0.1819,-0.1786,-0.1792,-0.1664,-0.173,-0.1731,-0.1732,-0.1732,-0.1733,-0.062,-0.0703,-0.0784,-0.0895,-0.1066,-0.1159,-0.1316,-0.1159,-0.1014,-0.0898,-0.1275,-0.1299,-0.1282,-0.13,-0.1151,-0.1068,-0.1064,-0.1059,0,-0.0618,-0.0651,-0.0697,-0.0736,-0.0768,-0.0958,-0.0674,-0.0602,-0.0764,-0.0854,-0.0989,-0.1429,-0.1442,-0.1436,-0.1444,-0.1277,0,0,0,-0.0594,-0.0587,-0.0561,-0.0569,-0.0615,-0.052,-0.0587,-0.0552,-0.0819,-0.0508,-0.0947,-0.0976,-0.1131,-0.1714,-0.1747,-0.1754,-0.1549,0,0]},{"header":{"parameterUnit":"m.s-1","parameterCategory":2,"la1":30.2992,"la2":30.254,"lo1":-89.0895,"lo2":-89.0443,"dy":0.0025,"dx":0.0025,"nx":19,"ny":19,"refTime":"2026-03-20T09:00:00:Z","depth":"4","parameterNumber":3,"parameterNumberName":"V-component_of_CURRENTS"},"data":[0,0,0,-0.0076,-0.0076,-0.0075,-0.0075,-0.0071,-0.0071,0,0,0,0,0,0,0,0,0,0,0,-0.0098,-0.0098,-0.0076,-0.0076,-0.0075,-0.0075,-0.0071,-0.0071,0,0,0,0,0,0,0,0,0,0,0,-0.0098,-0.0098,-0.0099,-0.0076,-0.0075,-0.0075,-0.0071,-0.0074,0,0,0,0,0,0,0,0,0,0,-0.0076,-0.0062,-0.0098,-0.0099,-0.0076,-0.0075,-0.0075,-0.0074,-0.0074,-0.0068,0,-0.0081,0,-0.0064,-0.007,-0.007,0,0,0,-0.0082,-0.0063,-0.0089,-0.0099,-0.0076,-0.0075,-0.0077,-0.0074,-0.0073,-0.0068,-0.0081,-0.008,-0.0064,-0.007,-0.007,-0.0012,-0.0011,0,0,-0.0082,-0.0068,-0.009,-0.009,-0.0092,-0.0077,-0.0077,-0.0074,-0.0064,-0.0081,-0.008,-0.0063,-0.007,-0.0069,-0.0012,-0.0012,0,0,0,-0.0078,-0.0067,-0.0094,-0.0091,-0.0084,-0.0077,-0.0077,-0.0064,-0.0081,-0.0079,-0.0063,-0.0069,-0.0069,-0.0013,-0.0012,-0.0126,0,0,0,-0.0079,-0.0065,-0.0094,-0.0081,-0.0084,-0.0064,-0.0067,-0.0083,-0.0081,-0.0063,-0.0069,-0.0069,-0.0013,-0.0012,-0.0124,-0.0103,0,0,0,-0.0095,-0.0064,-0.0077,-0.0081,-0.0078,-0.0065,-0.008,-0.0082,-0.007,-0.007,-0.0069,-0.0014,-0.0013,-0.0123,-0.0101,-0.0094,0,0,0,-0.0063,-0.0085,-0.0077,-0.0116,-0.0079,-0.015,-0.008,-0.0096,-0.0103,-0.0069,-0.0013,-0.0012,-0.0122,-0.01,-0.0094,-0.0134,0,0,0,-0.0078,-0.0086,-0.0121,-0.0114,-0.0193,-0.015,-0.0213,-0.017,-0.0072,-0.0017,-0.0016,-0.0125,-0.0101,-0.0094,-0.0058,0,0,0,0,-0.012,-0.0149,-0.0174,-0.0217,-0.0256,-0.0278,-0.0246,-0.0206,-0.0113,-0.0065,-0.0067,-0.0045,-0.0039,-0.0058,-0.0006,-0.0006,-0.0006,-0.0006,-0.0007,-0.0135,-0.0186,-0.025,-0.0315,-0.0357,-0.0365,-0.0354,-0.027,-0.0204,-0.0139,-0.01,-0.0106,-0.0129,-0.0089,-0.009,-0.009,-0.009,-0.0091,-0.0091,-0.0203,-0.0255,-0.0314,-0.0387,-0.043,-0.0477,-0.0426,-0.0358,-0.0221,-0.0149,-0.0141,-0.0128,-0.0101,-0.0099,-0.0097,-0.0096,-0.0096,-0.0095,-0.0094,-0.0237,-0.0261,-0.0309,-0.0411,-0.048,-0.0502,-0.0485,-0.0382,-0.0254,-0.0222,-0.0168,-0.0132,-0.0165,-0.0196,-0.0196,-0.0196,-0.0196,-0.0196,-0.0196,-0.0237,-0.0285,-0.0352,-0.0432,-0.0492,-0.0506,-0.0463,-0.0414,-0.0304,-0.0218,-0.019,-0.0138,-0.0135,-0.0165,-0.0195,-0.0195,-0.0195,-0.0195,-0.0195,-0.0278,-0.0279,-0.0378,-0.0438,-0.0539,-0.0533,-0.0509,-0.0437,-0.0364,-0.0315,-0.0233,-0.0232,-0.017,-0.0165,-0.0194,-0.0234,-0.0234,-0.0235,0,-0.0288,-0.0297,-0.041,-0.0491,-0.0539,-0.0548,-0.049,-0.0456,-0.0354,-0.0301,-0.0349,-0.0256,-0.0255,-0.0187,-0.0183,-0.0218,0,0,0,-0.0315,-0.0339,-0.04,-0.0466,-0.0538,-0.0481,-0.046,-0.0433,-0.034,-0.0388,-0.025,-0.0246,-0.0367,-0.019,-0.0089,-0.0085,-0.0126,0,0]}]]